GXA4359 KMCI-CYYZ

Flight info

Callsign GXA4359
Flight time N/A
Altitude 37000
Route ROYAL2 BODYN DCT QWERI NUBER6
Aircraft A320/M-SDE3FGHIRWY/LB1

Departure

Time 2026-05-03 23:14
Airport Kansas City International Airport (KMCI)

Arrival

Time N/A
Airport Toronto Pearson International Airport (CYYZ)
Time Latitude Longitude Altitude Speed Heading
2026-05-03 22:54 39.29628 -94.72397 1015 ft 0 kts 70°
2026-05-03 23:05 39.29624 -94.72414 1014 ft 4 kts 73°
2026-05-03 23:06 39.29619 -94.72448 1014 ft 4 kts 94°
2026-05-03 23:06 39.29625 -94.72474 1014 ft 4 kts 162°
2026-05-03 23:06 39.29634 -94.72475 1014 ft 1 kts 193°
2026-05-03 23:06 39.29635 -94.72474 1014 ft 0 kts 193°
2026-05-03 23:09 39.29624 -94.72478 1014 ft 1 kts 193°
2026-05-03 23:09 39.29588 -94.72488 1014 ft 7 kts 193°
2026-05-03 23:10 39.29556 -94.72534 1014 ft 12 kts 260°
2026-05-03 23:10 39.29505 -94.72609 1014 ft 13 kts 194°
2026-05-03 23:10 39.29412 -94.72636 1014 ft 14 kts 193°
2026-05-03 23:10 39.29311 -94.72666 1014 ft 16 kts 193°
2026-05-03 23:11 39.29229 -94.72734 1014 ft 13 kts 276°
2026-05-03 23:11 39.29267 -94.72795 1014 ft 0 kts 315°
2026-05-03 23:12 39.29273 -94.72803 1014 ft 5 kts 315°
2026-05-03 23:13 39.29316 -94.72858 1012 ft 10 kts 315°
2026-05-03 23:13 39.29378 -94.72920 1012 ft 12 kts 348°
2026-05-03 23:13 39.29420 -94.72911 1012 ft 0 kts 13°
2026-05-03 23:13 39.29502 -94.72887 1013 ft 39 kts 13°
2026-05-03 23:14 39.30007 -94.72739 1017 ft 106 kts 13°
2026-05-03 23:14 39.30914 -94.72473 1013 ft 159 kts 13°
2026-05-03 23:14 39.32084 -94.72104 1296 ft 178 kts 11°
2026-05-03 23:14 39.33310 -94.71714 1921 ft 185 kts 12°
2026-05-03 23:15 39.34563 -94.71333 2622 ft 185 kts 12°
2026-05-03 23:15 39.35876 -94.70932 2979 ft 205 kts 12°
2026-05-03 23:15 39.37350 -94.70483 3330 ft 230 kts 12°
2026-05-03 23:15 39.38985 -94.69973 3690 ft 254 kts 12°
2026-05-03 23:16 39.40750 -94.69377 4253 ft 270 kts 17°
2026-05-03 23:16 39.42379 -94.68081 4946 ft 284 kts 44°
2026-05-03 23:16 39.43489 -94.65901 5684 ft 295 kts 62°
2026-05-03 23:16 39.44402 -94.63496 6447 ft 302 kts 63°
2026-05-03 23:17 39.45320 -94.61024 7174 ft 308 kts 63°
2026-05-03 23:17 39.46240 -94.58530 7909 ft 314 kts 63°
2026-05-03 23:17 39.47189 -94.55957 8678 ft 319 kts 62°
2026-05-03 23:17 39.48155 -94.53350 9439 ft 324 kts 62°
2026-05-03 23:18 39.49141 -94.50702 10158 ft 329 kts 61°
2026-05-03 23:18 39.50173 -94.47945 10446 ft 352 kts 61°
2026-05-03 23:18 39.51281 -94.45001 10659 ft 375 kts 61°
2026-05-03 23:18 39.52440 -94.41905 11124 ft 387 kts 61°
2026-05-03 23:19 39.53615 -94.38739 11786 ft 392 kts 61°
2026-05-03 23:19 39.54795 -94.35541 12490 ft 396 kts 61°
2026-05-03 23:19 39.55988 -94.32305 13202 ft 399 kts 61°
2026-05-03 23:19 39.57191 -94.29054 13874 ft 402 kts 60°
2026-05-03 23:20 39.58407 -94.25770 14512 ft 405 kts 60°
2026-05-03 23:20 39.59633 -94.22463 15171 ft 407 kts 60°
2026-05-03 23:20 39.60864 -94.19141 15810 ft 409 kts 60°
2026-05-03 23:20 39.62100 -94.15797 16445 ft 412 kts 59°
2026-05-03 23:21 39.63338 -94.12437 17087 ft 414 kts 59°
2026-05-03 23:21 39.64582 -94.09052 17719 ft 416 kts 59°
2026-05-03 23:21 39.65831 -94.05652 18325 ft 419 kts 59°
2026-05-03 23:21 39.67070 -94.02277 18851 ft 421 kts 59°
2026-05-03 23:22 39.69614 -93.95347 19892 ft 427 kts 59°
2026-05-03 23:22 39.70899 -93.91844 20407 ft 431 kts 59°
2026-05-03 23:22 39.72192 -93.88318 20917 ft 434 kts 59°
2026-05-03 23:23 39.73495 -93.84761 21409 ft 437 kts 59°
2026-05-03 23:23 39.74805 -93.81178 21911 ft 440 kts 59°
2026-05-03 23:23 39.76122 -93.77571 22427 ft 443 kts 59°
2026-05-03 23:23 39.77445 -93.73938 22903 ft 445 kts 59°
2026-05-03 23:24 39.78770 -93.70290 23372 ft 448 kts 59°
2026-05-03 23:24 39.80102 -93.66614 23761 ft 451 kts 59°
2026-05-03 23:24 39.81425 -93.62960 24121 ft 453 kts 59°
2026-05-03 23:24 39.82771 -93.59238 24478 ft 456 kts 59°
2026-05-03 23:25 39.84126 -93.55491 24823 ft 458 kts 59°
2026-05-03 23:25 39.85484 -93.51730 25159 ft 461 kts 59°
2026-05-03 23:25 39.86853 -93.47932 25496 ft 463 kts 59°
2026-05-03 23:25 39.88225 -93.44119 25829 ft 466 kts 59°
2026-05-03 23:26 39.89604 -93.40283 26147 ft 469 kts 58°
2026-05-03 23:26 39.90989 -93.36425 26470 ft 471 kts 58°
2026-05-03 23:26 39.92380 -93.32547 26780 ft 474 kts 58°
2026-05-03 23:26 39.93776 -93.28647 27087 ft 476 kts 58°
2026-05-03 23:27 39.95179 -93.24726 27389 ft 478 kts 58°
2026-05-03 23:27 39.96575 -93.20834 27673 ft 481 kts 58°
2026-05-03 23:27 39.97988 -93.16880 27971 ft 483 kts 58°
2026-05-03 23:27 39.99413 -93.12887 28270 ft 485 kts 58°
2026-05-03 23:28 40.00842 -93.08879 28527 ft 488 kts 58°
2026-05-03 23:28 40.02274 -93.04849 28833 ft 490 kts 58°
2026-05-03 23:28 40.03226 -93.02168 29001 ft 492 kts 58°
2026-05-03 23:28 40.04666 -92.98104 29245 ft 494 kts 58°
2026-05-03 23:29 40.06112 -92.94021 29495 ft 496 kts 58°
2026-05-03 23:29 40.07560 -92.89926 29740 ft 498 kts 58°
2026-05-03 23:29 40.09011 -92.85809 29980 ft 499 kts 58°
2026-05-03 23:29 40.10461 -92.81691 30269 ft 498 kts 57°
2026-05-03 23:30 40.11906 -92.77578 30539 ft 498 kts 57°
2026-05-03 23:30 40.13353 -92.73457 30792 ft 498 kts 57°
2026-05-03 23:30 40.14795 -92.69346 31056 ft 498 kts 57°
2026-05-03 23:30 40.16219 -92.65279 31327 ft 498 kts 57°
2026-05-03 23:31 40.17665 -92.61154 31602 ft 498 kts 57°
2026-05-03 23:31 40.19105 -92.57040 31834 ft 498 kts 57°
2026-05-03 23:31 40.21988 -92.48786 31891 ft 498 kts 57°
2026-05-03 23:32 40.24862 -92.40521 31891 ft 499 kts 57°
2026-05-03 23:32 40.27739 -92.32233 31891 ft 499 kts 57°
2026-05-03 23:33 40.30603 -92.23949 31884 ft 499 kts 57°